[[{"header":{"parameterUnit":"m.s-1","parameterCategory":1,"la1":30.2991,"la2":30.254,"lo1":-89.0895,"lo2":-89.0444,"dy":0.0017,"dx":0.0017,"nx":28,"ny":28,"refTime":"2023-08-06T21:00:00:Z","depth":0,"parameterNumber":2,"parameterNumberName":"U-component_of_WINDS"},"data":[0,0,0,0,0,0,0,0,0,0,0,0,0,0,0,0,0,0,0,0,0,0,0,0,0,0,0,0,0,0,0,0,0,0,0,0,0,0,0,0,0,0,0,0,0,0,0,0,0,0,0,0,0,0,0,0,0,0,3.3452,3.3454,0,3.3648,3.365,3.3652,3.3597,3.3593,3.3589,3.3585,3.3793,3.3802,3.3811,0,0,0,0,0,0,0,0,0,0,0,0,0,3.3033,3.3041,3.3451,3.3454,3.3456,3.3648,3.365,3.3653,3.3598,3.3593,3.3588,3.3583,3.379,3.3801,3.3812,0,0,0,0,0,0,0,0,0,0,0,0,0,3.3221,3.3043,3.3451,3.3452,3.3454,3.3647,3.365,3.3654,3.3599,3.3593,3.3587,3.3581,3.3786,3.38,3.3814,3.402,0,0,3.3856,3.3862,0,0,0,0,0,0,0,0,3.321,3.3236,3.3449,3.3452,3.3454,3.3592,3.3579,3.3777,3.36,3.3544,3.3585,3.3578,3.3731,3.3749,3.38,3.403,3.4039,3.3857,3.3866,3.3872,3.3876,0,0,0,0,0,0,0,3.3197,3.3227,3.3529,3.3452,3.3456,3.3444,3.3464,3.3616,3.3669,3.3548,3.3545,3.3569,3.3732,3.3786,3.3804,3.4042,3.3857,3.3869,3.3878,3.3883,3.445,3.4457,0,0,0,0,0,0,3.3181,3.3217,3.3523,3.3535,3.3315,3.3456,3.3478,3.3554,3.3667,3.3679,3.3573,3.3565,3.3766,3.3788,3.3811,3.406,3.3872,3.3885,3.3893,3.4444,3.4452,3.4459,0,0,0,0,0,0,3.3172,3.3209,3.3515,3.3375,3.3413,3.347,3.3555,3.3561,3.3615,3.3686,3.3696,3.3619,3.3762,3.3792,3.3968,3.4067,3.3891,3.3904,3.4436,3.4446,3.4456,3.456,0,0,0,0,0,0,3.3161,3.3206,3.3285,3.3377,3.3421,3.3668,3.3561,3.3569,3.3639,3.363,3.3732,3.3743,3.3759,3.3947,3.3982,3.4083,3.3914,3.4427,3.444,3.4452,3.4548,3.4572,3.4593,0,0,0,0,0,3.3146,3.3308,3.3289,3.3326,3.3519,3.3673,3.3698,3.3712,3.3647,3.3727,3.3772,3.374,3.405,3.3966,3.4004,3.4111,3.4421,3.4437,3.4451,3.4538,3.4568,3.4593,0,0,0,0,0,0,3.3228,3.332,3.33,3.3496,3.3577,3.3664,3.3765,3.3743,3.3846,3.3834,3.3848,3.3871,3.4052,3.4099,3.4004,3.4316,3.4226,3.425,3.4279,3.4308,3.433,3.4315,3.3926,0,0,0,0,0,3.3268,3.3384,3.3459,3.3625,3.3666,3.3709,3.3776,3.3779,3.3864,3.3899,3.3957,3.4043,3.4159,3.4236,3.4347,3.4554,3.4575,3.4646,3.4668,3.4686,3.4707,3.482,3.4852,3.4509,3.4509,3.4508,0,0,3.3355,3.3419,3.3492,3.3643,3.3706,3.3827,3.3738,3.387,3.396,3.392,3.4089,3.4135,3.4231,3.4423,3.4511,3.4468,3.4806,3.4706,3.472,3.4731,3.4838,3.4871,3.49,3.4519,3.4517,3.4516,0,0,3.3572,3.3633,3.3777,3.3841,3.3936,3.3963,3.3998,3.4087,3.4115,3.4285,3.4257,3.4365,3.4565,3.4634,3.4696,3.4938,3.4912,3.4974,3.5092,3.5202,3.5229,3.5253,3.5339,3.537,3.4994,3.4994,3.4994,0,3.3668,3.3847,3.3855,3.3988,3.4056,3.4022,3.4169,3.4231,3.4359,3.4407,3.4357,3.4606,3.4669,3.4876,3.4935,3.4986,3.5026,3.4963,3.5224,3.5248,3.5271,3.5353,3.5386,3.5001,3.5,3.4999,3.4999,0,3.3959,3.4084,3.4189,3.4311,3.439,3.453,3.456,3.4639,3.4635,3.4667,3.484,3.4913,3.5038,3.5087,3.5086,3.5295,3.5265,3.5219,3.513,3.531,3.5388,3.542,3.5011,3.5008,3.5006,3.5004,0,0,3.4237,3.4358,3.4397,3.4451,3.4553,3.465,3.4788,3.4908,3.4976,3.5065,3.5181,3.535,3.5308,3.5378,3.5383,3.5479,3.5665,3.5421,3.5424,3.5465,3.5901,3.5935,3.5971,3.5648,3.5654,3.5659,3.5892,0,3.4464,3.4705,3.4715,3.4935,3.505,3.5019,3.5139,3.5215,3.5248,3.5352,3.5389,3.5509,3.5443,3.5485,3.5578,3.5623,3.5753,3.5606,3.5759,3.5764,3.5736,3.6012,3.605,3.6267,3.5923,3.5928,3.5932,0,3.4762,3.4857,3.5088,3.5171,3.522,3.5328,3.5437,3.5536,3.5622,3.5639,3.5716,3.5707,3.5849,3.5753,3.595,3.5849,3.5912,3.5943,3.5952,3.5968,3.586,3.6036,3.6336,3.6369,3.598,3.5976,3.5973,0,3.4942,3.5128,3.5289,3.5337,3.5438,3.5514,3.5561,3.564,3.571,3.5807,3.5853,3.5965,3.6027,3.6115,3.6137,3.6065,3.6334,3.6239,3.6353,3.6353,3.6413,3.6409,3.6728,3.6452,3.6451,3.6451,3.645,0,3.5195,3.5338,3.5371,3.5471,3.563,3.564,3.5797,3.5838,3.5909,3.6017,3.5996,3.6099,3.612,3.6228,3.6246,3.6406,3.6434,3.6453,3.6456,3.6456,3.6453,3.6498,3.6484,3.6459,3.6457,3.6456,3.6454,0,3.5423,3.5451,3.5626,3.5706,3.573,3.5843,3.5913,3.6009,3.6038,3.6175,3.6208,3.6256,3.638,3.641,3.6559,3.6571,3.6761,3.6749,3.6732,3.6731,3.6843,3.6833,3.7203,3.7252,3.6943,3.6946,3.6948,0,3.5584,3.5692,3.5783,3.5853,3.5902,3.6015,3.6086,3.6099,3.6175,3.6279,3.6363,3.6484,3.6582,3.6783,3.6832,3.6946,3.6937,3.7059,3.6955,3.695,3.694,3.6934,3.6945,3.708,3.7083,3.7086,3.7088,0,3.5865,3.5873,3.5975,3.6082,3.6167,3.6253,3.6335,3.6393,3.6418,3.6504,3.663,3.6705,3.6856,3.6977,3.7091,3.714,3.712,3.712,3.7152,3.7153,3.7139,3.7148,3.6787,3.7112,3.7109,3.7108,3.7106,3.7105,3.6065,3.6159,3.6238,3.6352,3.6414,3.6491,3.6584,3.6624,3.6729,3.6851,3.6853,3.699,3.7071,3.7221,3.7277,3.7385,3.7348,3.7395,3.7407,3.7419,3.7429,3.712,3.7406,3.7405,3.7405,3.7404,3.7404,0,3.6346,3.6394,3.6499,3.6612,3.6702,3.6671,3.6759,3.6837,3.6957,3.7034,3.713,3.7274,3.7391,3.7448,3.7564,3.764,3.7633,3.767,3.7665,3.7677,3.7455,3.7416,3.7673,3.7673,3.7673,3.7673,3.7673,3.7673,3.6503,3.6661,3.6677,3.6866,3.6913,3.7046,3.7099,3.7169,3.723,3.7391,3.7487,3.7522,3.7592,3.7712,3.7818,3.7832,3.7876,3.7918,3.7927,3.772,3.7692,3.7666,3.7629,3.7927,3.7927,3.8139,3.8141,3.8143]},{"header":{"parameterUnit":"m.s-1","parameterCategory":1,"la1":30.2991,"la2":30.254,"lo1":-89.0895,"lo2":-89.0444,"dy":0.0017,"dx":0.0017,"nx":28,"ny":28,"refTime":"2023-08-06T21:00:00:Z","depth":0,"parameterNumber":3,"parameterNumberName":"V-component_of_WINDS"},"data":[0,0,0,0,0,0,0,0,0,0,0,0,0,0,0,0,0,0,0,0,0,0,0,0,0,0,0,0,0,0,0,0,0,0,0,0,0,0,0,0,0,0,0,0,0,0,0,0,0,0,0,0,0,0,0,0,0,0,6.0648,6.065,0,6.0808,6.081,6.0812,6.077,6.0767,6.0764,6.0761,6.0918,6.0925,6.0932,0,0,0,0,0,0,0,0,0,0,0,0,0,6.0297,6.0303,6.0648,6.065,6.0652,6.0808,6.081,6.0812,6.0771,6.0767,6.0763,6.076,6.0916,6.0924,6.0933,0,0,0,0,0,0,0,0,0,0,0,0,0,6.0452,6.0306,6.0647,6.065,6.0652,6.0808,6.081,6.0813,6.0772,6.0767,6.0762,6.0758,6.0913,6.0924,6.0934,6.1095,0,0,6.0967,6.0971,0,0,0,0,0,0,0,0,6.0443,6.0465,6.0648,6.065,6.0652,6.0765,6.0744,6.0907,6.0773,6.0726,6.0761,6.0755,6.0871,6.0884,6.0925,6.1102,6.1109,6.0968,6.0974,6.0979,6.0982,0,0,0,0,0,0,0,6.0433,6.0458,6.0711,6.065,6.0653,6.064,6.0657,6.0775,6.0823,6.073,6.0727,6.0747,6.0871,6.0915,6.0928,6.1111,6.0968,6.0977,6.0984,6.0988,6.1425,6.143,0,0,0,0,0,0,6.0421,6.0449,6.0706,6.0716,6.0534,6.0651,6.0669,6.0733,6.0821,6.083,6.0751,6.0744,6.0899,6.0916,6.0933,6.1126,6.0979,6.0989,6.0995,6.142,6.1426,6.1432,0,0,0,0,0,0,6.0414,6.0444,6.0699,6.0582,6.0613,6.0662,6.0734,6.0739,6.0783,6.0837,6.0845,6.0787,6.0896,6.0918,6.1055,6.1131,6.0994,6.1003,6.1414,6.1422,6.1429,6.1513,0,0,0,0,0,0,6.0404,6.0442,6.0506,6.0584,6.062,6.0821,6.0738,6.0745,6.0802,6.0795,6.0874,6.0882,6.0894,6.1039,6.1066,6.1143,6.1012,6.1407,6.1418,6.1427,6.1503,6.1522,6.1539,0,0,0,0,0,6.0392,6.0522,6.0509,6.0541,6.0701,6.0826,6.0846,6.0859,6.0808,6.0871,6.0906,6.0879,6.1118,6.1054,6.1083,6.1165,6.1403,6.1415,6.1426,6.1495,6.1519,6.1538,0,0,0,0,0,0,6.045,6.0532,6.0519,6.068,6.0746,6.0818,6.0899,6.0883,6.0964,6.0954,6.0964,6.0982,6.1121,6.1156,6.1083,6.1323,6.1253,6.1271,6.1295,6.1318,6.1335,6.1323,6.1021,0,0,0,0,0,6.0482,6.0579,6.0644,6.0779,6.0813,6.085,6.0905,6.0909,6.0978,6.1005,6.105,6.1115,6.1204,6.1263,6.1348,6.1508,6.1523,6.1578,6.1596,6.161,6.1625,6.171,6.1735,6.147,6.147,6.147,0,0,6.0548,6.0605,6.0665,6.0792,6.0845,6.0942,6.0874,6.0981,6.1052,6.102,6.1152,6.1187,6.126,6.1408,6.1476,6.1442,6.1702,6.1625,6.1636,6.1644,6.1724,6.1749,6.1772,6.1478,6.1477,6.1476,0,0,6.0718,6.0772,6.089,6.0943,6.1024,6.1047,6.1075,6.115,6.1172,6.1305,6.1283,6.1366,6.1521,6.1573,6.162,6.1808,6.1785,6.1835,6.1927,6.2009,6.203,6.2048,6.2113,6.2137,6.185,6.185,6.185,0,6.079,6.0939,6.0951,6.106,6.1115,6.1092,6.1209,6.126,6.1363,6.14,6.1361,6.1553,6.1601,6.176,6.1806,6.1845,6.1875,6.1826,6.2026,6.2045,6.2062,6.2124,6.2149,6.1856,6.1855,6.1854,6.1854,0,6.1021,6.1124,6.1209,6.1311,6.1375,6.1488,6.1515,6.1578,6.1575,6.1602,6.1735,6.1792,6.1887,6.1925,6.1924,6.2083,6.206,6.2024,6.1953,6.2093,6.2151,6.2175,6.1863,6.1861,6.186,6.1858,0,0,6.1234,6.1341,6.1372,6.1417,6.1503,6.1581,6.169,6.1786,6.1839,6.191,6.2,6.213,6.2097,6.215,6.2153,6.2226,6.2368,6.218,6.2182,6.2212,6.2545,6.2571,6.2599,6.2354,6.2358,6.2362,6.2538,0,6.1411,6.1607,6.1621,6.1796,6.1889,6.1868,6.1963,6.2024,6.2051,6.2131,6.216,6.2252,6.2201,6.2233,6.2304,6.2336,6.2435,6.2323,6.2435,6.2439,6.2417,6.2629,6.2658,6.2822,6.2561,6.2565,6.2568,0,6.1644,6.1724,6.1909,6.198,6.202,6.2105,6.2192,6.2271,6.2338,6.2352,6.2411,6.2404,6.2512,6.2438,6.2586,6.251,6.2556,6.2578,6.2585,6.2595,6.2511,6.2644,6.2875,6.2899,6.2604,6.2601,6.2599,0,6.1779,6.1932,6.2063,6.2102,6.2188,6.2248,6.2286,6.2349,6.2405,6.248,6.2515,6.2601,6.2648,6.2713,6.2728,6.2673,6.2876,6.2803,6.2888,6.2888,6.2931,6.2928,6.3171,6.2963,6.2962,6.2962,6.2961,0,6.1975,6.2089,6.2124,6.2204,6.233,6.2343,6.2466,6.25,6.2555,6.2639,6.2625,6.2703,6.2719,6.2799,6.2811,6.2931,6.2952,6.2964,6.2966,6.2966,6.2964,6.2995,6.2984,6.2968,6.2967,6.2966,6.2965,0,6.2147,6.2176,6.2316,6.2386,6.2406,6.2495,6.2554,6.2629,6.2653,6.2759,6.2785,6.2822,6.2916,6.2938,6.3049,6.3057,6.3198,6.3189,6.3176,6.3175,6.3258,6.325,6.353,6.3566,6.3334,6.3337,6.3338,0,6.227,6.2357,6.2436,6.2493,6.2534,6.2625,6.2681,6.2696,6.2755,6.2838,6.2902,6.2995,6.307,6.322,6.3255,6.3339,6.3331,6.3424,6.3344,6.334,6.3331,6.3325,6.3333,6.3439,6.3441,6.3443,6.3445,0,6.2484,6.2494,6.2578,6.2666,6.2735,6.2805,6.2871,6.2917,6.2941,6.3007,6.3104,6.3162,6.3276,6.3367,6.3451,6.3487,6.3469,6.347,6.3493,6.3493,6.3482,6.3488,6.3216,6.3463,6.3461,6.346,6.3459,6.3458,6.2634,6.271,6.2778,6.2871,6.2922,6.2985,6.3058,6.3092,6.3174,6.3269,6.3272,6.3377,6.3439,6.355,6.3591,6.3671,6.3642,6.3677,6.3686,6.3694,6.3701,6.347,6.3686,6.3686,6.3685,6.3685,6.3684,0,6.2847,6.2889,6.2975,6.3069,6.3141,6.312,6.3192,6.3253,6.3346,6.3407,6.3481,6.3591,6.3678,6.372,6.3806,6.3862,6.3856,6.3884,6.3879,6.3887,6.3722,6.3693,6.3887,6.3887,6.3887,6.3887,6.3887,6.3887,6.2966,6.3092,6.3109,6.326,6.33,6.3405,6.3447,6.3503,6.3551,6.3675,6.3749,6.3777,6.3829,6.3918,6.3996,6.4006,6.4037,6.4069,6.4075,6.392,6.3899,6.388,6.3852,6.4076,6.4077,6.4233,6.4234,6.4235]}]]